TimeEST,TemperatureF,Dew PointF,Humidity,Sea Level PressureIn,VisibilityMPH,Wind Direction,Wind SpeedMPH,Gust SpeedMPH,PrecipitationIn,Events,Conditions,WindDirDegrees,DateUTC
12:54 AM,51.1,46.9,86,30.48,-9999.0,SSW,19.6,-,N/A,,Unknown,200,2012-11-12 05:54:00
1:54 AM,51.1,48.0,89,30.49,-9999.0,SSW,15.0,-,N/A,,Unknown,200,2012-11-12 06:54:00
2:54 AM,50.0,48.0,93,30.49,-9999.0,SSW,16.1,25.3,N/A,,Unknown,200,2012-11-12 07:54:00
3:54 AM,50.0,48.0,93,30.48,-9999.0,SSW,16.1,-,N/A,,Unknown,210,2012-11-12 08:54:00
4:54 AM,50.0,48.0,93,30.48,-9999.0,SSW,16.1,-,N/A,,Unknown,200,2012-11-12 09:54:00
5:54 AM,50.0,48.9,96,30.48,-9999.0,SSW,16.1,-,N/A,,Unknown,200,2012-11-12 10:54:00
6:54 AM,50.0,48.9,96,30.50,-9999.0,South,18.4,24.2,N/A,,Unknown,190,2012-11-12 11:54:00
7:54 AM,51.1,50.0,96,30.50,-9999.0,SSW,12.7,23.0,N/A,,Unknown,200,2012-11-12 12:54:00
8:54 AM,53.1,52.0,96,30.50,-9999.0,South,13.8,21.9,N/A,,Unknown,190,2012-11-12 13:54:00
9:54 AM,57.0,51.1,81,30.49,-9999.0,SSW,12.7,23.0,N/A,,Unknown,210,2012-11-12 14:54:00
10:54 AM,61.0,51.1,70,30.47,-9999.0,SW,19.6,26.5,N/A,,Unknown,220,2012-11-12 15:54:00
11:54 AM,64.0,50.0,60,30.44,-9999.0,South,12.7,25.3,N/A,,Unknown,190,2012-11-12 16:54:00
12:54 PM,66.0,51.1,59,30.43,-9999.0,SSW,17.3,25.3,N/A,,Unknown,200,2012-11-12 17:54:00
1:54 PM,66.0,53.1,63,30.40,-9999.0,South,21.9,27.6,N/A,,Unknown,190,2012-11-12 18:54:00
2:54 PM,64.0,53.1,67,30.40,-9999.0,SSW,21.9,28.8,N/A,,Unknown,200,2012-11-12 19:54:00
3:54 PM,62.1,54.0,75,30.39,-9999.0,South,19.6,26.5,N/A,,Unknown,190,2012-11-12 20:54:00
4:54 PM,60.1,53.1,78,30.38,-9999.0,South,16.1,25.3,N/A,,Unknown,180,2012-11-12 21:54:00
5:54 PM,59.0,53.1,81,30.38,-9999.0,South,17.3,27.6,N/A,,Unknown,180,2012-11-12 22:54:00
6:54 PM,57.9,54.0,87,30.36,-9999.0,South,16.1,24.2,N/A,,Unknown,170,2012-11-12 23:54:00
7:54 PM,59.0,55.0,87,30.34,-9999.0,South,18.4,27.6,N/A,,Unknown,170,2012-11-13 00:54:00
8:54 PM,59.0,55.9,90,30.32,-9999.0,South,19.6,26.5,N/A,,Unknown,170,2012-11-13 01:54:00
9:54 PM,59.0,55.9,90,30.30,-9999.0,South,23.0,31.1,N/A,,Unknown,170,2012-11-13 02:54:00
10:54 PM,59.0,55.9,90,30.28,-9999.0,South,17.3,27.6,N/A,,Unknown,170,2012-11-13 03:54:00
11:54 PM,60.1,57.0,90,30.25,-9999.0,South,20.7,28.8,N/A,,Unknown,180,2012-11-13 04:54:00